EST,Max TemperatureF,Mean TemperatureF,Min TemperatureF,Max Dew PointF,MeanDew PointF,Min DewpointF,Max Humidity, Mean Humidity, Min Humidity, Max Sea Level PressureIn, Mean Sea Level PressureIn, Min Sea Level PressureIn, Max VisibilityMiles, Mean VisibilityMiles, Min VisibilityMiles, Max Wind SpeedMPH, Mean Wind SpeedMPH, Max Gust SpeedMPH,PrecipitationIn, CloudCover, Events, WindDirDegrees
2011-11-1,55,42,28,41,34,28,100,85,47,30.20,30.17,30.11,10,5,0,13,3,17,0.00,1,Fog,195
2011-11-2,64,54,44,46,39,37,87,62,42,30.10,30.04,29.97,10,10,7,14,8,21,0.00,1,,200
2011-11-3,50,42,33,46,41,34,100,93,76,30.15,30.08,30.01,10,10,4,15,9,20,0.00,7,Rain,22
2011-11-4,46,38,30,37,33,30,100,87,57,30.34,30.29,30.21,10,10,7,9,5,,0.00,1,,30
2011-11-5,51,38,24,39,32,25,100,79,44,30.36,30.30,30.19,10,8,1,12,4,,0.00,0,,151
2011-11-6,62,47,32,45,38,32,100,77,52,30.18,30.10,30.01,10,10,7,22,7,30,0.00,1,,179
2011-11-7,57,52,46,50,45,37,88,74,51,30.21,30.17,30.09,10,9,5,14,7,18,0.00,7,,224
2011-11-8,46,44,42,45,41,34,100,88,62,30.20,30.12,29.99,10,8,2,13,4,18,0.00,8,Rain,58
2011-11-9,60,50,41,57,46,39,100,94,67,29.97,29.71,29.46,10,6,1,30,11,43,0.00,8,Rain,110
2011-11-10,39,36,32,37,33,30,100,91,75,29.86,29.84,29.80,10,10,3,18,11,29,0.00,5,Rain-Snow,236
2011-11-11,41,36,30,32,31,28,100,88,61,29.94,29.88,29.81,10,10,7,16,7,22,0.00,6,Snow,243
2011-11-12,57,44,32,41,35,30,100,76,44,29.81,29.76,29.71,10,9,7,15,8,24,0.00,0,,198
2011-11-13,60,54,48,52,45,36,82,70,51,29.68,29.49,29.34,10,10,10,23,14,33,0.00,7,Rain,196
2011-11-14,51,42,33,43,39,34,100,87,66,29.67,29.61,29.54,10,9,5,14,7,22,0.00,2,Rain,213
2011-11-15,55,44,32,45,39,32,100,84,47,29.80,29.74,29.68,10,8,0,12,6,16,0.00,1,Fog,199
2011-11-16,42,35,28,43,29,23,100,76,49,30.05,29.90,29.75,10,10,7,18,8,28,0.00,1,,260
2011-11-17,32,28,23,27,22,19,93,73,60,30.14,30.03,29.98,10,10,1,18,8,25,0.00,6,Snow,251
2011-11-18,44,32,21,23,21,19,100,60,37,30.20,30.06,29.92,10,10,10,24,10,34,0.00,0,,195
2011-11-19,46,40,35,39,30,23,76,62,53,29.95,29.90,29.78,10,10,10,18,9,25,0.00,6,,190
2011-11-20,53,42,30,50,36,28,93,83,70,30.35,30.13,29.74,10,10,7,22,11,31,0.00,7,,326
2011-11-21,41,32,24,30,29,23,100,87,65,30.39,30.33,30.29,10,10,10,7,4,,0.00,3,,52
2011-11-22,35,30,26,34,31,27,100,95,87,30.31,30.11,29.89,10,7,4,16,9,23,0.00,4,Rain-Snow,52
2011-11-23,50,39,28,36,33,28,100,85,50,30.17,30.08,29.91,10,9,3,12,7,,0.00,0,,271
2011-11-24,44,37,30,41,38,30,100,96,87,30.17,30.12,30.05,7,4,0,17,8,24,0.00,7,Fog,221
2011-11-25,55,44,33,43,38,34,100,77,51,30.04,29.95,29.88,10,8,3,16,8,25,0.00,0,,207
2011-11-26,57,50,44,54,46,41,100,83,63,29.96,29.88,29.76,10,10,7,15,8,22,0.00,6,Rain,188
2011-11-27,53,43,32,54,42,32,100,97,93,30.06,29.84,29.67,10,8,2,15,10,18,0.00,8,Rain,314
2011-11-28,33,32,32,32,31,30,100,94,87,30.16,30.10,30.01,10,10,10,8,6,,0.00,8,,27
2011-11-29,35,34,32,34,32,30,100,98,87,30.01,29.89,29.76,10,8,1,22,13,32,0.00,8,Rain-Snow,9
2011-11-30,41,34,26,28,27,23,93,79,57,30.10,29.91,29.75,10,10,10,13,9,18,0.00,1,,285